Weather Roundup
Issued by NWS Springfield, MO

Home | Current Version | Previous Version | Text Only | Print | Product List | Glossary On
Versions: 1 2 3 4 5 6 7 8 9 10 11 12 13 14 15 16 17 18 19 20 21 22 23 24 25 26 27 28 29 30 31 32 33 34 35 36 37 38 39 40 41 42 43 44 45 46 47 48 49 50
000
NZUS99 KSGF 250607
HRRSGF

HOURLY WEATHER
NATIONAL WEATHER SERVICE SPRINGFIELD MO
100 AM CDT MON JUL 25 2016

......SGF CWA......

CITY           SKY/WX    TMP DP  RH WIND       PRES   REMARKS
SPRINGFIELD    CLEAR     81  75  82 S6        29.97F
6HR MIN TEMP:  81; 6HR MAX TEMP:  96;

JOPLIN         CLOUDY    81  74  79 S7        29.97F
6HR MIN TEMP:  80; 6HR MAX TEMP:  94;

WEST PLAINS    PTCLDY    77  73  87 CALM      30.01S
6HR MIN TEMP:  77; 6HR MAX TEMP:  89;

ROLLA          CLOUDY    81  76  84 VRB5      29.96F
6HR MIN TEMP:  80; 6HR MAX TEMP:  91;

OSAGE BEACH    CLOUDY    82  79  90 NE7       29.99R HX  92
BRANSON        MOCLDY    77  72  83 CALM      30.02R

......SURROUNDING SGF CWA......

CITY           SKY/WX    TMP DP  RH WIND       PRES   REMARKS
CHANUTE        CLOUDY    83  74  74 CALM      29.96S
PARSONS        CLOUDY    85  73  67 CALM      29.96F HX  91
COFFEYVILLE    CLOUDY    86  75  69 S7        29.95F HX  95
EMPORIA        PTCLDY    78  71  79 N8        30.00S
GROVE OK       CLEAR     81  73  78 CALM      29.99S
ROGERS AR      CLEAR     80  71  74 CALM      30.02S
SILOAM SPRINGS CLEAR     79  64  61 CALM      30.02F
HARRISON AR    CLEAR     75  71  87 CALM      30.01S
NEAR YELLVILLE CLEAR     79  72  78 CALM      29.95S

......KANSAS AND MISSOURI......

CITY           SKY/WX    TMP DP  RH WIND       PRES   REMARKS
KANSAS CTY INT CLOUDY    78  70  76 NE8       29.99F
DOWNTOWN KC    MOCLDY    82  70  66 NE7       29.96F
COLUMBIA       LGT RAIN  73  70  90 W13       30.00F
SEDALIA        CLOUDY    73  70  90 E3        29.97F
ST JOSEPH      CLEAR     70  67  90 NE6       30.03R
ST LOUIS       TSTM      78  72  81 N8        29.98F
SPIRIT OF STL  CLOUDY    80  73  79 E9        29.95F
KIRKSVILLE     CLOUDY    76  69  79 N7        30.03R
WICHITA        CLOUDY    86  71  60 CALM      29.97F THUNDER HX  91
TOPEKA         CLOUDY    78  69  73 E6        29.99F
OLATHE         MOCLDY    78  71  79 E3        29.99S

......TENNESSEE......

CITY           SKY/WX    TMP DP  RH WIND       PRES   REMARKS
MEMPHIS        PTCLDY    81  75  82 S5        29.96F
NASHVILLE      MOCLDY    79  73  82 S3        29.99R

......ARKANSAS.......

CITY           SKY/WX    TMP DP  RH WIND       PRES   REMARKS
FAYETTEVILLE   CLEAR     75  70  84 CALM      30.00F
FT SMITH       CLEAR     79  72  79 NE5       29.96F
LITTLE ROCK    MOCLDY    78  71  79 CALM      29.96S

......OKLAHOMA.......

CITY           SKY/WX    TMP DP  RH WIND       PRES   REMARKS
TULSA          CLOUDY    89  73  59 S9        29.94S HX  97
PONCA CITY     CLOUDY    87  71  58 SE17      29.95F HX  93
MCALESTER      CLEAR     83  72  69 SE3       29.96S
OKLAHOMA CITY  PTCLDY    80  71  74 S5        29.97F

......IOWA............

CITY           SKY/WX    TMP DP  RH WIND       PRES   REMARKS
DES MOINES     PTCLDY    74  64  71 N6        30.04R
QUAD CITIES    CLOUDY    78  66  66 NW7       29.98R

......ILLINOIS........

CITY           SKY/WX    TMP DP  RH WIND       PRES   REMARKS
QUINCY         CLOUDY    76  71  85 N7        29.97S
CHICAGO        CLOUDY    75  68  78 SW8       29.96R




USA.gov is the U.S. government's official web portal to all federal, state and local government web resources and services.